Weather History for KHYR - November, 2013

Change the Weather History Date:

Monday, November 4, 2013

  Actual Average Record
Temperature  
Mean Temperature 36 °F -  
Max Temperature 44 °F 38 °F 55 °F (2011)
Min Temperature 28 °F 23 °F 13 °F (1966)
Degree Days  
Heating Degree Days 29    
Moisture  
Dew Point 36 °F    
Average Humidity 83    
Maximum Humidity 100    
Minimum Humidity 65    
Precipitation  
Precipitation 0.14 in - - ()
Sea Level Pressure  
Sea Level Pressure 29.97 in    
Wind  
Wind Speed 12 mph (South)    
Max Wind Speed 21 mph    
Max Gust Speed 31 mph    
Visibility 7 miles    
Events Fog , Rain    
Averages and records for this station are not official NWS values.
T = Trace of Precipitation, MM = Missing Value Source: NWS Daily Summary

Daily Weather History Graph

Daily Weather History Graph

Search for Another Location

Airport or City:

Trip Planner

Search our weather history database for the weather conditions in past years. The results will help you decide how hot, cold, wet, or windy it might be!

Date:

Astronomy

Nov. 04, 2013 Rise Set
Actual Time 6:51 AM CST 4:47 PM CST
Civil Twilight 6:19 AM CST 5:18 PM CST
Nautical Twilight 5:43 AM CST 5:54 PM CST
Astronomical Twilight 5:09 AM CST 6:28 PM CST
Moon 8:05 AM CST (11/4) 5:48 PM CST (11/4)
Length of Visible Light 10h 59m
Length of Day
9h 56m
New Moon, 2% of the Moon is Illuminated
Nov 4
New Moon
Nov 9
First Quarter
Nov 17
Full
Nov 25
Last Quarter
Dec 2
New

Hourly Weather History & Observations

Time (CST) Temp. Windchill Dew Point Humidity Pressure Visibility Wind Dir Wind Speed Gust Speed Precip Events Conditions
12:53 AM 43.0 °F 35.4 °F 32.0 °F 65% 30.01 in 10.0 mi SSE 16.1 mph 24.2 mph N/A   Clear
1:53 AM 42.1 °F 33.9 °F 32.0 °F 67% 29.99 in 10.0 mi SSE 17.3 mph 25.3 mph N/A   Clear
2:53 AM 43.0 °F 35.4 °F 32.0 °F 65% 29.98 in 10.0 mi SSE 16.1 mph 28.8 mph N/A   Overcast
3:53 AM 43.0 °F 34.2 °F 33.1 °F 68% 29.97 in 10.0 mi SSE 20.7 mph 25.3 mph 0.00 in   Overcast
4:53 AM 43.0 °F 35.7 °F 33.1 °F 68% 29.96 in 10.0 mi SSE 15.0 mph 31.1 mph N/A   Overcast
5:53 AM 42.1 °F 35.7 °F 34.0 °F 73% 29.96 in 10.0 mi SSE 11.5 mph 23.0 mph 0.00 in   Overcast
6:53 AM 43.0 °F 36.0 °F 34.0 °F 71% 29.95 in 10.0 mi SSE 13.8 mph 21.9 mph N/A   Overcast
7:53 AM 43.0 °F 36.4 °F 34.0 °F 71% 29.94 in 10.0 mi SSE 12.7 mph 21.9 mph N/A   Overcast
8:53 AM 44.1 °F 37.1 °F 34.0 °F 68% 29.94 in 10.0 mi South 15.0 mph 24.2 mph N/A   Overcast
9:53 AM 44.1 °F 38.1 °F 34.0 °F 68% 29.94 in 10.0 mi South 11.5 mph 25.3 mph 0.00 in Rain Light Rain
10:53 AM 43.0 °F 37.2 °F 36.0 °F 76% 29.93 in 10.0 mi SSE 10.4 mph 20.7 mph 0.00 in Rain Light Rain
11:16 AM 42.8 °F 35.4 °F 37.4 °F 81% 29.88 in 10.0 mi SSE 15.0 mph 24.2 mph 0.00 in Rain Light Rain
11:53 AM 43.0 °F 36.0 °F 37.9 °F 82% 29.90 in 10.0 mi South 13.8 mph 23.0 mph 0.00 in   Overcast
12:08 PM 42.8 °F 36.6 °F 37.4 °F 81% 29.86 in 7.0 mi SSE 11.5 mph 18.4 mph 0.00 in Rain Light Rain
12:53 PM 42.1 °F 36.6 °F 39.0 °F 89% 29.90 in 3.0 mi South 9.2 mph - 0.06 in Rain Rain
1:39 PM 42.8 °F 37.5 °F 39.2 °F 87% 29.86 in 5.0 mi South 9.2 mph - 0.05 in Rain Light Rain
1:53 PM 43.0 °F 37.2 °F 39.9 °F 89% 29.89 in 9.0 mi South 10.4 mph 19.6 mph 0.06 in Rain Light Rain
2:53 PM 43.0 °F 36.8 °F 39.9 °F 89% 29.88 in 10.0 mi South 11.5 mph 18.4 mph 0.00 in   Overcast
3:13 PM 42.8 °F 36.6 °F 39.2 °F 87% 29.86 in 10.0 mi South 11.5 mph 20.7 mph N/A   Overcast
3:51 PM 42.8 °F 38.6 °F 41.0 °F 93% 29.88 in 1.8 mi SSW 6.9 mph 17.3 mph 0.00 in Rain Light Rain
3:53 PM 43.0 °F 37.7 °F 41.0 °F 93% 29.91 in 1.8 mi South 9.2 mph 17.3 mph 0.00 in Rain Light Rain
4:21 PM 42.8 °F 37.5 °F 42.8 °F 100% 29.88 in 2.5 mi South 9.2 mph - 0.01 in Rain Light Rain
4:35 PM 44.6 °F 39.7 °F 42.8 °F 93% 29.89 in 4.0 mi South 9.2 mph 16.1 mph 0.01 in   Overcast
4:53 PM 44.1 °F 40.8 °F 42.1 °F 93% 29.93 in 2.5 mi Variable 5.8 mph - 0.01 in Rain Light Rain
5:12 PM 44.6 °F 40.2 °F 42.8 °F 93% 29.90 in 4.0 mi South 8.1 mph - 0.01 in Rain Light Rain
5:53 PM 44.1 °F 41.5 °F 42.1 °F 93% 29.97 in 9.0 mi Variable 4.6 mph - 0.01 in   Overcast
6:53 PM 43.0 °F 38.8 °F 39.9 °F 89% 30.01 in 10.0 mi WSW 6.9 mph - N/A   Overcast
7:41 PM 42.8 °F 40.1 °F 39.2 °F 87% 30.00 in 10.0 mi Variable 4.6 mph - N/A   Overcast
7:53 PM 42.1 °F 40.2 °F 37.9 °F 85% 30.03 in 10.0 mi Variable 3.5 mph - N/A   Overcast
8:53 PM 39.0 °F 35.7 °F 32.0 °F 76% 30.08 in 10.0 mi Variable 4.6 mph - N/A   Overcast
9:53 PM 33.1 °F - 32.0 °F 96% 30.12 in 8.0 mi Calm Calm - N/A   Clear
10:53 PM 32.0 °F - 30.0 °F 92% 30.13 in 6.0 mi Calm Calm - N/A   Clear
11:06 PM 30.2 °F - 28.4 °F 93% 30.09 in 1.8 mi Calm Calm - N/A   Clear
11:09 PM 30.2 °F - 28.4 °F 93% 30.09 in 0.8 mi Calm Calm - N/A   Clear
11:45 PM 28.4 °F - 26.6 °F 93% 30.10 in 0.2 mi Calm Calm - N/A Fog Light Freezing Fog
11:53 PM 30.0 °F - 27.0 °F 88% 30.15 in 0.5 mi Calm Calm - N/A Fog Light Freezing Fog
11:58 PM 30.2 °F - 26.6 °F 86% 30.11 in 1.2 mi Calm Calm - N/A   Clear